This is the latest recevied weather packets stored in our database for station/object N0EDB-13. If no packets are shown the sender has not sent any weather packets the latest 10 day(s).
| Time | Temp. | Humidity | Pressure | Rain* | Wind** | Luminosity | Snow |
|---|---|---|---|---|---|---|---|
| 1777475314 | 8.89° C | 69% | 1511.7 hPa | 0 mm | - | 92 W/m² | - |
| 1777475014 | 8.89° C | 69% | 1512.2 hPa | 0 mm | - | 89 W/m² | - |
| 1777474713 | 8.89° C | 68% | 1512.4 hPa | 0 mm | - | 87 W/m² | - |
| 1777474413 | 8.33° C | 70% | 1512.8 hPa | 0 mm | - | 85 W/m² | - |
| 1777474112 | 8.33° C | 71% | 1513.5 hPa | 0 mm | - | 85 W/m² | - |
| 1777473812 | 7.78° C | 71% | 1514.4 hPa | 0 mm | - | 85 W/m² | - |
| 1777473511 | 7.78° C | 72% | 1515.2 hPa | 0 mm | - | 88 W/m² | - |
| 1777473210 | 7.78° C | 73% | 1515.9 hPa | 0 mm | - | 95 W/m² | - |
| 1777472909 | 7.22° C | 73% | 1516.4 hPa | 0 mm | - | 95 W/m² | - |
| 1777472608 | 7.22° C | 73% | 1516.7 hPa | 0 mm | - | 88 W/m² | - |
| 1777472307 | 7.22° C | 73% | 1517.3 hPa | 0 mm | - | 75 W/m² | - |
| 1777472006 | 6.67° C | 75% | 1518 hPa | 0 mm | - | 82 W/m² | - |
| 1777471705 | 6.67° C | 74% | 1518.5 hPa | 0 mm | - | 79 W/m² | - |
| 1777471404 | 6.67° C | 75% | 1519.5 hPa | 0 mm | - | 76 W/m² | - |
| 1777471104 | 6.11° C | 77% | 1520.4 hPa | 0 mm | - | 72 W/m² | - |
| 1777470803 | 5.56° C | 78% | 1521.3 hPa | 0 mm | - | 69 W/m² | - |
| 1777470503 | 5.56° C | 78% | 1522.3 hPa | 0 mm | - | 67 W/m² | - |
| 1777470202 | 5° C | 79% | 1523.1 hPa | 0 mm | - | 67 W/m² | - |
| 1777469901 | 5° C | 80% | 1523.6 hPa | 0 mm | - | 65 W/m² | - |
| 1777469601 | 5° C | 80% | 1523.9 hPa | 0 mm | - | 61 W/m² | - |
| 1777469300 | 5° C | 80% | 1524.2 hPa | 0 mm | - | 61 W/m² | - |
| 1777468999 | 4.44° C | 79% | 1524.6 hPa | 0 mm | - | 59 W/m² | - |
| 1777468698 | 4.44° C | 80% | 1525.1 hPa | 0 mm | - | 57 W/m² | - |
| 1777468398 | 4.44° C | 80% | 1525.4 hPa | 0 mm | - | 56 W/m² | - |
| 1777468098 | 4.44° C | 80% | 1525.7 hPa | 0 mm | - | 54 W/m² | - |
* Rain latest hour (hover to see other rain measurements)
** Current wind speed in m/s (hover to see current wind gust speed)